Location: Colossi of Memnon
(25.7167°N, 32.6167°E)
Time: 09:26:00
(UTC+00:00)

H-2A R/B - Pass Details

Date: 05 March 2021
Orbit: 501 x 538 km, 97.3° (Epoch: 12 March)

Event Time Altitude Azimuth Distance (km) Brightness Sun altitude
Rises 03:18:33 0° 6° (N) 2,690 6.4 -12.2°
Reaches altitude 10° 03:20:41 10° 2° (N) 1,795 5.5 -11.7°
Maximum altitude 03:24:30 59° 283° (WNW) 623 2.8 -10.8°
Drops below altitude 10° 03:28:17 10° 204° (SSW) 1,775 5.2 -10.0°
Sets 03:30:23 0° 200° (SSW) 2,657 6.1 -9.5°
